SVA596 OERK-OMDB

Flight info

Callsign SVA596
Flight time N/A
Altitude 29000
Route RAPMA Y214 KUTNA M440 KATIT/N0458F390 DCT PEKEM M628 RIGIL G783 ELUDA/N0455F350 G783 ASPED Q308 KIPOK Q568 IMPED
Aircraft A333/H-SDE3GHIJ2J3J5M1RVWXY/LB2D1

Departure

Time 2026-05-07 10:13
Airport King Khalid International Airport (OERK)

Arrival

Time N/A
Airport Dubai International Airport (OMDB)
Time Latitude Longitude Altitude Speed Heading
2026-05-07 09:47 24.96215 46.70294 2042 ft 0 kts 203°
2026-05-07 09:59 24.96221 46.70296 2033 ft 2 kts 203°
2026-05-07 09:59 24.96239 46.70305 2043 ft 3 kts 202°
2026-05-07 10:00 24.96258 46.70313 2043 ft 3 kts 201°
2026-05-07 10:00 24.96277 46.70321 2038 ft 3 kts 200°
2026-05-07 10:00 24.96296 46.70329 2043 ft 3 kts 200°
2026-05-07 10:00 24.96315 46.70337 2043 ft 3 kts 201°
2026-05-07 10:01 24.96333 46.70346 2041 ft 3 kts 213°
2026-05-07 10:01 24.96350 46.70359 2043 ft 3 kts 219°
2026-05-07 10:01 24.96364 46.70370 2043 ft 3 kts 182°
2026-05-07 10:01 24.96380 46.70366 2041 ft 3 kts 156°
2026-05-07 10:02 24.96398 46.70356 2041 ft 3 kts 152°
2026-05-07 10:02 24.96416 46.70345 2043 ft 3 kts 149°
2026-05-07 10:02 24.96430 46.70336 2037 ft 1 kts 149°
2026-05-07 10:02 24.96431 46.70335 2037 ft 0 kts 149°
2026-05-07 10:05 24.96421 46.70341 2043 ft 4 kts 149°
2026-05-07 10:05 24.96382 46.70378 2039 ft 9 kts 122°
2026-05-07 10:06 24.96397 46.70458 2041 ft 12 kts 59°
2026-05-07 10:06 24.96438 46.70536 2043 ft 11 kts 59°
2026-05-07 10:06 24.96461 46.70614 2036 ft 11 kts 104°
2026-05-07 10:06 24.96392 46.70676 2058 ft 16 kts 149°
2026-05-07 10:07 24.96291 46.70740 2040 ft 19 kts 150°
2026-05-07 10:07 24.96175 46.70814 2040 ft 19 kts 150°
2026-05-07 10:07 24.96060 46.70887 2037 ft 19 kts 150°
2026-05-07 10:07 24.95944 46.70960 2042 ft 19 kts 150°
2026-05-07 10:08 24.95826 46.71034 2039 ft 20 kts 150°
2026-05-07 10:08 24.95707 46.71109 2039 ft 20 kts 149°
2026-05-07 10:08 24.95585 46.71187 2042 ft 20 kts 150°
2026-05-07 10:08 24.95465 46.71263 2039 ft 20 kts 150°
2026-05-07 10:09 24.95341 46.71341 2042 ft 21 kts 150°
2026-05-07 10:09 24.95216 46.71420 2045 ft 21 kts 150°
2026-05-07 10:09 24.95092 46.71498 2045 ft 20 kts 150°
2026-05-07 10:09 24.94973 46.71573 2044 ft 18 kts 150°
2026-05-07 10:10 24.94865 46.71642 2043 ft 15 kts 150°
2026-05-07 10:10 24.94834 46.71722 2045 ft 11 kts 55°
2026-05-07 10:10 24.94863 46.71774 2040 ft 0 kts 59°
2026-05-07 10:11 24.94864 46.71776 2039 ft 1 kts 59°
2026-05-07 10:11 24.94872 46.71792 2040 ft 4 kts 59°
2026-05-07 10:12 24.94893 46.71830 2045 ft 8 kts 59°
2026-05-07 10:12 24.94924 46.71891 2045 ft 10 kts 62°
2026-05-07 10:12 24.94972 46.71913 2038 ft 7 kts 338°
2026-05-07 10:12 24.95045 46.71870 2041 ft 28 kts 331°
2026-05-07 10:13 24.95435 46.71625 2043 ft 101 kts 330°
2026-05-07 10:13 24.96245 46.71113 2044 ft 167 kts 330°
2026-05-07 10:13 24.97356 46.70397 2600 ft 188 kts 334°
2026-05-07 10:13 24.98575 46.69864 3430 ft 197 kts 343°
2026-05-07 10:14 24.99934 46.69298 3658 ft 220 kts 342°
2026-05-07 10:14 25.01442 46.68691 3862 ft 243 kts 342°
2026-05-07 10:14 25.03112 46.68028 4067 ft 267 kts 341°
2026-05-07 10:14 25.04914 46.67315 4399 ft 282 kts 342°
2026-05-07 10:15 25.06786 46.66573 4863 ft 289 kts 341°
2026-05-07 10:15 25.08696 46.65824 5455 ft 292 kts 345°
2026-05-07 10:15 25.10699 46.65659 6058 ft 291 kts 14°
2026-05-07 10:15 25.12618 46.66340 6726 ft 290 kts 24°
2026-05-07 10:16 25.14509 46.67168 7341 ft 295 kts 23°
2026-05-07 10:16 25.16430 46.68048 7930 ft 300 kts 29°
2026-05-07 10:16 25.18080 46.69438 8590 ft 300 kts 53°
2026-05-07 10:16 25.19001 46.71470 9231 ft 297 kts 82°
2026-05-07 10:17 25.19180 46.73730 9924 ft 297 kts 93°